Regional Weather Roundup
Issued by NWS

Home | Current Version | Previous Version | Text Only | Print | Product List | Glossary Off
Versions: 1 2 3 4 5 6 7 8 9 10 11 12 13 14 15 16 17 18 19 20 21 22 23 24 25 26 27 28 29 30 31 32 33 34 35 36 37 38 39 40 41 42 43 44 45 46 47 48 49 50

012
ASUS43 KMPX 310601
RWRMN
WEATHER ROUNDUP FOR MINNESOTA
NATIONAL WEATHER SERVICE TWIN CITIES/CHANHASSEN MN
100 AM CDT WED AUG 31 2016


NOTE: "FAIR" INDICATES FEW OR NO CLOUDS BELOW 12,000 FEET WITH NO
SIGNIFICANT WEATHER AND/OR OBSTRUCTIONS TO VISIBILITY. N/A MEANS
CURRENT SKY AND/OR WEATHER CONDITIONS ARE NOT AVAILABLE.

MNZ060>063-068>070-310700-
   Twin Cities Metro

CITY           SKY/WX    TMP DP  RH WIND       PRES   REMARKS
TWIN CITIES    FAIR      64  55  72 N6        30.18R
6HR MIN TEMP:  64; 6HR MAX TEMP:  77;

ST PAUL        FAIR      63  56  78 W3        30.18R
CRYSTAL        FAIR      61  54  77 N3        30.18R
BLAINE         FAIR      63  55  77 CALM      30.19R
LAKEVILLE      FAIR      57  57 100 W5        30.18S
EDEN PRAIRIE   FAIR      63  58  83 N7        30.17S
6HR MIN TEMP:  63; 6HR MAX TEMP:  76;

LAKEVILLE      FAIR      57  57 100 W5        30.18S
SOUTH ST PAUL  FAIR      64  55  71 N3        30.18R
LAKE ELMO      FAIR      55  55 100 CALM      30.19S
$$
MNZ001>005-007-008-013>017-022>024-027-028-310700-
   Northwest Minnesota

CITY           SKY/WX    TMP DP  RH WIND       PRES   REMARKS
BEMIDJI        FAIR      49  48  97 CALM      30.22F
HALLOCK        FAIR      54  48  82 CALM      30.23S
ROSEAU         FAIR      52  48  87 CALM      30.24S
WARROAD        FAIR      52  48  87 NW5       30.24R
THIEF RVR FALL FAIR      56  52  86 N3        30.24R
CROOKSTON      FAIR      61  52  72 CALM      30.23S
FOSSTON        FAIR      50  48  93 CALM      30.24S
DETROIT LAKES  FAIR      61  59  94 CALM      30.24S
MOORHEAD       FAIR      57  54  88 CALM      30.22R
MAHNOMEN       FAIR      55  54  95 E3        30.23R
$$
MNZ006-009>011-018-025>026-310700-
   North Central Minnesota

CITY           SKY/WX    TMP DP  RH WIND       PRES   REMARKS
BAUDETTE       FAIR      50  49  96 W5        30.21S
FLAG ISLAND    FAIR      63  54  72 N3        30.21S
INTL FALLS     FAIR      43  41  93 CALM      30.20S
6HR MIN TEMP:  42; 6HR MAX TEMP:  67;

WASKISH        FAIR      50  48  93 CALM      30.22S
BIG FORK       FAIR      46  46 100 CALM      30.22S
LONGVILLE      FAIR      52  52 100 CALM      30.21S
GRAND RAPIDS   FAIR      52  51  97 CALM      30.23S
ORR            FAIR      48  46  93 CALM      30.18S
COOK           FAIR      46  46 100 CALM      30.21S
WALKER         FAIR      54  53  96 CALM      30.22S
$$
MNZ012-019>021-037-310700-
   Northeast Minnesota

CITY           SKY/WX    TMP DP  RH WIND       PRES   REMARKS
DULUTH         FAIR      56  50  80 N6        30.19R
6HR MIN TEMP:  56; 6HR MAX TEMP:  70;

ELY            FAIR      48  46  93 CALM      30.19R
HIBBING        FAIR      45  44  97 CALM      30.20S
EVELETH        FAIR      53  49  88 CALM      30.21R
DULUTH HARBOR  FAIR      64  55  72 NW7       30.18R
TWO HARBORS    FAIR      59  52  77 CALM      30.16S
SILVER BAY     FAIR      57  50  77 N3        30.16R
GRAND MARAIS     N/A     60  51  72 N7        30.14S
G MARAIS ARPRT FAIR      48  45  87 N5        30.18S
$$
MNZ029>031-032-039>041-046>048-054>057-064-310700-
   West Central Minnesota

CITY           SKY/WX    TMP DP  RH WIND       PRES   REMARKS
FERGUS FALLS   FAIR      61  55  82 E6        30.23S
WHEATON        FAIR      61  57  88 CALM      30.23R
MORRIS         FAIR      59  55  88 CALM      30.20S
ALEXANDRIA     FAIR      60  56  86 N6        30.23S
ELBOW LAKE     FAIR      64  58  80 CALM      30.22S
WADENA         FAIR      55  54  94 CALM      30.22S
GLENWOOD       FAIR      63  55  77 N7        30.22S
APPLETON       FAIR      61  55  82 CALM      30.20R
BENSON         FAIR      55  52  88 CALM      30.20S
ORTONVILLE     FAIR      61  57  88 CALM      30.21S
MADISON        FAIR      61  61 100 CALM      30.21R
WILLMAR        FAIR      61  57  88 NE6       30.21S
$$
MNZ033>034-036-042>043-049>051-058-059-310700-
   Central Minnesota

CITY           SKY/WX    TMP DP  RH WIND       PRES   REMARKS
ST CLOUD       FAIR      57  57 100 CALM      30.20S
6HR MIN TEMP:  57; 6HR MAX TEMP:  75;

SAUK CENTRE    FAIR      59  55  88 N3        30.22R
PAYNESVILLE    FAIR      56  56 100 CALM      30.21S
AITKIN         FOG       52  48  87 CALM      30.20S VSB 3/4
PINE RIVER     FAIR      52  52 100 CALM      30.25R
BRAINERD       FAIR      53  53 100 CALM      30.22R
STAPLES        FAIR      55  55 100 CALM      30.22S
LONG PRAIRIE   FAIR      55  54  94 CALM      30.22S
LITTLE FALLS     N/A     52  52 100 CALM      30.21S FOG
LITCHFIELD     FAIR      63  59  88 CALM      30.21R
BUFFALO        FAIR      61  56  82 CALM      30.20S
MAPLE LAKE     FAIR      59  58  96 CALM      30.21S
HUTCHINSON     FAIR      62  60  95 CALM      30.20S
$$
MNZ037-044-045-052-053-310700-
   East Central Minnesota

CITY           SKY/WX    TMP DP  RH WIND       PRES   REMARKS
PRINCETON      FAIR      55  55 100 CALM      30.20S
MORA           FAIR      54  50  87 CALM      30.21S
CAMBRIDGE      FAIR      57  52  82 CALM      30.18S
RUSH CITY      MOCLDY    55  53  95 CALM      30.20R
MOOSE LAKE     FAIR      54  50  87 CALM      30.18S
HINCKLEY       FAIR      55  54  94 N5        30.19S
CLOQUET        FAIR      54  48  82 NW3       30.20R
MCGREGOR       FAIR      52  50  93 CALM      30.21R
$$
MNZ071>073-080-081-089-090-097-098-310700-
   Southwest Minnesota

CITY           SKY/WX    TMP DP  RH WIND       PRES   REMARKS
MONTEVIDEO     FAIR      63  54  72 CALM      30.22R
GRANITE FALLS  FAIR      61  58  91 N3        30.21S
CANBY          FAIR      59  56  91 CALM      30.22R
MARSHALL       FAIR      60  57  89 SW3       30.21R
REDWOOD FALLS  FAIR      64  58  80 CALM      30.19R
OLIVIA         FAIR      59  55  88 N5        30.19R
WINDOM         FAIR      57  55  94 CALM      30.21R
WORTHINGTON    FAIR      59  57  93 CALM      30.22R
JACKSON        FAIR      59  55  88 NW3       30.21S FOG
TRACY          FAIR      63  59  87 CALM      30.21S
SLAYTON        FAIR      57  55  94 NW3       30.23S
$$
MNZ065>067-074>077-082>085-091>093-310700-
   South Central Minnesota

CITY           SKY/WX    TMP DP  RH WIND       PRES   REMARKS
NEW ULM        FAIR      61  57  88 CALM      30.19R
ST JAMES       FAIR      59  57  94 CALM      30.20S
FAIRMONT       FAIR      59  56  89 CALM      30.20R
GLENCOE        FAIR      61  61  97 N3        30.19R
FARIBAULT      FAIR      55  55 100 CALM      30.19R
OWATONNA       FAIR      55  54  94 CALM      30.19R
WASECA         FAIR      57  54  88 CALM      30.20R
ALBERT LEA     FAIR      59  55  88 N3        30.19R
$$
MNZ078>079-086>088-094>096-310700-
   Southeast Minnesota

CITY           SKY/WX    TMP DP  RH WIND       PRES   REMARKS
ROCHESTER      FAIR      59  57  93 NW7       30.18S
6HR MIN TEMP:  59; 6HR MAX TEMP:  73;

RED WING       FAIR      59  57  94 CALM      30.16S
STANTON        FAIR      57  55  94 CALM      30.17R
DODGE CENTER   FAIR      57  55  94 N5        30.18S
WINONA         FAIR      61  59  94 NW3       30.16S
AUSTIN         FAIR      59  55  88 CALM      30.17S
PRESTON        FAIR      60  56  84 N6        30.18S
$$
ABBREVIATIONS USED IN REMARKS
   TC - TEMPERATURES IN CELSIUS
  WCI - WIND CHILL INDEX
   HX - HEAT INDEX
  VSB - VISIBILITY
$$




USA.gov is the U.S. government's official web portal to all federal, state and local government web resources and services.